Back to catalog

STARLINK-6249

AliveCommunicationsVLEO
NORAD 56541·PAYLOAD·🇺🇸 United States

Launched May 14, 2023 from Cape Canaveral Space Force Station

Loading…

Next Passes (next 24 hours)

TLE

FreshSource: CelesTrak SupGP

Epoch: Sep 15, 2026, 02:47 UTC

1 56541C 23065AQ  26258.11645833 -.00022020  00000+0 -79762-3 0  2580
2 56541  43.0001 234.0638 0001454 262.8463 308.2722 15.27586897    15

Track STARLINK-6249 in real time with AllMySat

Download on the App Store